sat.trackr.live / text

‹ back to catalog

AMAZONIA 1

NORAD 47699 · 2021-015A

PAYLOAD ACTIVE UNKNOWN

§ Identity

Operator
Country
BRAZ
Launch date
2021-02-28
Launch site
SRILR
Launch vehicle
Mass (kg)
RCS (m²)

External: N2YO · Heavens-Above · Gunter

§ Orbital elements

Epoch: 2026-09-20T22:09:01.284192Z

Period
99.94 min
Inclination
98.4276°
Eccentricity
0.0001847
Mean motion
14.40844646 rev/d
Perigee alt
754.4 km
Apogee alt
757.0 km
Semi-major
7,133.8 km
B*
4.0045e-5
RAAN
335.1979°
Arg perigee
270.7058°
Mean anomaly
89.3919°
Rev number
29,243

§ Raw data

AMAZONIA 11 47699U 21015A   26263.92293153  .00000085  00000+0  40045-4 0  99962 47699  98.4276 335.1979 0001847 270.7058  89.3919 14.40844646292439

JSON: /api/v1/satellites/47699 · /tle

For live sub-satellite position, see the globe view (requires WebGL).

§ Visibility from observer

Set your observer location to see the next 7 days of passes ≥ 10°. The values pass through the URL so the page stays shareable.

No JS? Fill the form by hand. The geolocation button needs JavaScript.